Lake Charles, LA

9:26 AM CDT on September 30, 2016 (GMT -0500)
Chennault International

Weather History for KCWF - March, 2013

Change the Weather History Date:

Thursday, March 28, 2013

  Actual Average Record
Temperature  
Mean Temperature 56 °F -  
Max Temperature 71 °F 71 °F 81 °F (2012)
Min Temperature 41 °F 56 °F 41 °F (2013)
Degree Days  
Heating Degree Days 9    
Growing Degree Days 6 (Base 50)    
Moisture  
Dew Point 45 °F    
Average Humidity 77    
Maximum Humidity 94    
Minimum Humidity 43    
Precipitation  
Precipitation 0.00 in - - ()
Sea Level Pressure  
Sea Level Pressure 30.29 in    
Wind  
Wind Speed 2 mph (ESE)    
Max Wind Speed 13 mph    
Max Gust Speed -    
Visibility 10 miles    
Events      
Averages and records for this station are not official NWS values.
T = Trace of Precipitation, MM = Missing Value Source: NWS Daily Summary

Daily Weather History Graph

Daily Weather History Graph

Search for Another Location

Airport or City:

Trip Planner

Search our weather history database for the weather conditions in past years. The results will help you decide how hot, cold, wet, or windy it might be!

Date:

Astronomy

Mar. 28, 2013 Rise Set
Actual Time 7:06 AM CDT 7:29 PM CDT
Civil Twilight 6:42 AM CDT 7:53 PM CDT
Nautical Twilight 6:14 AM CDT 8:21 PM CDT
Astronomical Twilight 5:45 AM CDT 8:49 PM CDT
Moon 9:10 PM CDT (3/28) 7:42 AM CDT (3/28)
Length of Visible Light 13h 10m
Length of Day
12h 22m
Full, 98% of the Moon is Illuminated
Mar 28
Full
Apr 2
Last Quarter
Apr 10
New
Apr 18
First Quarter
Apr 25
Full

Hourly Weather History & Observations

Time (CDT) Temp. Windchill Dew Point Humidity Pressure Visibility Wind Dir Wind Speed Gust Speed Precip Events Conditions
12:15 AM 46.0 °F - 40.5 °F 81% 30.31 in 10.0 mi Calm Calm - N/A   Clear
12:35 AM 44.4 °F - 40.1 °F 85% 30.31 in 10.0 mi Calm Calm - N/A   Clear
12:55 AM 43.7 °F - 39.9 °F 87% 30.31 in 10.0 mi Calm Calm - N/A   Clear
1:15 AM 43.2 °F - 40.1 °F 89% 30.31 in 10.0 mi Calm Calm - N/A   Clear
1:35 AM 42.3 °F 40.5 °F 39.4 °F 90% 30.30 in 10.0 mi ENE 3.5 mph - N/A   Scattered Clouds
1:55 AM 43.7 °F 41.1 °F 40.3 °F 88% 30.29 in 10.0 mi ENE 4.6 mph - N/A   Clear
2:15 AM 44.4 °F 42.9 °F 40.5 °F 86% 30.29 in 10.0 mi ENE 3.5 mph - N/A   Clear
2:35 AM 43.0 °F - 39.7 °F 88% 30.29 in 10.0 mi Calm Calm - N/A   Clear
2:55 AM 42.6 °F - 39.7 °F 90% 30.29 in 10.0 mi Calm Calm - N/A   Mostly Cloudy
3:15 AM 45.3 °F - 41.5 °F 87% 30.28 in 10.0 mi Calm Calm - N/A   Overcast
3:35 AM 45.5 °F - 42.1 °F 88% 30.28 in 10.0 mi Calm Calm - N/A   Overcast
3:55 AM 46.9 °F - 42.3 °F 84% 30.27 in 10.0 mi ENE 4.6 mph - N/A   Overcast
4:15 AM 47.7 °F - 42.8 °F 83% 30.27 in 10.0 mi Calm Calm - N/A   Overcast
4:35 AM 48.6 °F - 43.3 °F 82% 30.28 in 10.0 mi Calm Calm - N/A   Overcast
4:55 AM 49.3 °F - 43.9 °F 82% 30.27 in 10.0 mi Calm Calm - N/A   Overcast
5:15 AM 49.5 °F - 43.9 °F 81% 30.28 in 10.0 mi Calm Calm - N/A   Overcast
5:35 AM 48.7 °F - 44.8 °F 86% 30.28 in 10.0 mi Calm Calm - N/A   Overcast
5:55 AM 49.1 °F - 45.1 °F 86% 30.29 in 10.0 mi North 3.5 mph - N/A   Overcast
6:00 AM 48.2 °F - 44.6 °F 87% 30.29 in 10.0 mi Calm Calm - N/A   Overcast
6:15 AM 49.5 °F - 45.1 °F 85% 30.29 in 10.0 mi Calm Calm - N/A   Overcast
6:35 AM 49.8 °F - 45.5 °F 85% 30.30 in 10.0 mi NE 3.5 mph - N/A   Overcast
6:45 AM 50.0 °F - 44.6 °F 82% 30.30 in 10.0 mi Calm Calm - N/A   Overcast
6:55 AM 50.0 °F - 45.3 °F 84% 30.30 in 10.0 mi Calm Calm - N/A   Overcast
7:49 AM 51.8 °F - 44.6 °F 76% 30.31 in 10.0 mi Calm Calm - N/A   Mostly Cloudy
8:45 AM 53.6 °F - 46.4 °F 77% 30.33 in 10.0 mi East 3.5 mph - N/A   Overcast
9:53 AM 57.2 °F - 46.4 °F 67% 30.34 in 10.0 mi East 8.1 mph - N/A   Overcast
10:57 AM 60.8 °F - 44.6 °F 55% 30.35 in 10.0 mi East 5.8 mph - N/A   Overcast
11:45 AM 64.4 °F - 46.4 °F 52% 30.36 in 10.0 mi East 5.8 mph - N/A   Overcast
12:46 PM 66.2 °F - 48.2 °F 52% 30.33 in 10.0 mi East 3.5 mph - N/A   Overcast
1:48 PM 69.8 °F - 48.2 °F 46% 30.30 in 10.0 mi SE 5.8 mph - N/A   Scattered Clouds
2:49 PM 71.6 °F - 48.2 °F 43% 30.27 in 10.0 mi ESE 9.2 mph - N/A   Scattered Clouds
3:49 PM 71.6 °F - 48.2 °F 43% 30.25 in 10.0 mi SE 9.2 mph - N/A   Scattered Clouds
4:50 PM 71.6 °F - 48.2 °F 43% 30.24 in 10.0 mi SSE 11.5 mph - N/A   Scattered Clouds
5:52 PM 68.0 °F - 51.8 °F 56% 30.24 in 10.0 mi South 11.5 mph - N/A   Scattered Clouds
6:50 PM 66.2 °F - 51.8 °F 60% 30.25 in 10.0 mi South 12.7 mph - N/A   Scattered Clouds
7:45 PM 41.0 °F 34.3 °F 30.2 °F 65% 30.08 in 7.0 mi WNW 11.5 mph - N/A   Overcast
7:50 PM 60.8 °F - 53.6 °F 77% 30.26 in 10.0 mi South 6.9 mph - N/A   Clear
8:51 PM 55.4 °F - 51.8 °F 88% 30.27 in 10.0 mi SSE 4.6 mph - N/A   Clear
9:45 PM 53.6 °F - 51.8 °F 94% 30.28 in 10.0 mi SSE 4.6 mph - N/A   Clear
11:15 PM 52.7 °F - 50.9 °F 94% 30.30 in 10.0 mi SSE 6.9 mph - N/A   Clear
11:35 PM 51.6 °F - 49.5 °F 92% 30.29 in 10.0 mi SSE 5.8 mph - N/A   Clear
11:55 PM 52.7 °F - 50.9 °F 94% 30.28 in 10.0 mi SE 4.6 mph - N/A   Clear